Temp
16 17 17 17 18 18 18 19 19 19 19 20 20 20 20 20 20 20 20 20 20 20 20 20 20 20 20 20 19 19 19 19 19 19 19 19 19 19 19 18 17 16 15 15 16 16 15 15 15 14 14 14 14 14 14 15 14 14 13 13 13 13 12 12 12 12 11 11 11
16 16 17 17 17 17 18 18 18 19 19 19 19 20 20 20 20 20 20 19 19 20 20 20 20 20 20 20 19 19 18 18 18 19 19 19 19 19 18 18 17 16 16 16 16 16 15 15 15 15 15 14 14 14 14 14 14 14 13 12 12 12 12 12 12 12 11 11 11
16 16 16 17 17 17 17 18 18 18 19 19 19 19 20 20 20 20 20 20 20 20 20 20 20 20 20 20 19 18 18 17 18 18 18 18 18 18 18 17 17 16 16 16 16 15 15 15 15 15 15 15 15 14 14 14 14 13 12 12 12 12 12 12 12 12 11 11 10
16 16 16 16 16 17 17 17 18 18 18 19 19 19 19 20 20 20 20 20 20 20 20 20 20 20 19 19 18 18 17 17 17 17 18 18 18 18 17 17 17 16 16 16 15 15 15 15 15 15 14 14 14 14 13 13 13 12 11 11 11 11 11 11 11 11 10 10 10
16 16 16 16 16 16 17 17 17 18 18 18 19 19 19 19 20 20 20 20 20 20 20 20 19 19 18 18 18 17 16 16 17 17 17 17 17 17 17 17 16 16 16 15 15 15 15 14 14 14 14 14 13 13 12 12 12 11 11 11 10 10 10 10 10 10 10 9 9
16 16 16 16 16 16 16 17 17 17 18 18 18 19 19 19 19 20 20 20 20 20 19 19 18 18 18 17 17 16 16 16 16 17 17 17 17 17 16 16 16 15 15 15 15 14 14 14 14 14 13 13 12 12 11 11 11 10 10 10 10 10 9 9 9 9 9 9 9
16 16 16 16 16 16 16 16 17 17 17 17 18 18 19 19 19 19 19 19 19 19 18 18 18 17 17 17 16 16 16 16 16 16 16 16 16 16 16 16 15 15 15 15 14 14 14 14 13 13 12 11 11 11 11 10 10 10 10 10 9 9 9 8 8 8 8 8 8
15 15 15 15 16 16 16 16 16 16 17 17 17 18 18 19 19 19 19 19 18 18 18 17 17 17 16 16 16 16 16 16 16 15 15 15 15 15 15 15 15 15 15 15 14 14 14 13 12 11 11 11 10 10 10 10 10 9 9 9 8 8 8 8 7 8 8 7 7
15 15 15 15 15 16 16 16 16 16 16 17 17 17 18 18 18 19 19 19 18 18 17 17 16 16 16 16 16 15 15 15 15 15 15 15 15 15 15 15 15 15 14 14 13 13 12 11 11 10 10 10 10 10 9 9 9 8 8 8 7 7 7 7 7 7 7 7 7
14 14 15 15 15 15 16 16 16 16 16 17 17 17 17 18 18 17 17 18 17 17 16 15 15 15 15 15 15 15 15 15 15 15 15 15 15 15 15 14 14 13 13 12 12 11 11 10 10 10 9 9 9 9 8 8 8 7 7 7 7 6 6 6 6 6 5 5 5
14 14 14 15 15 15 16 16 16 16 16 17 17 17 17 16 16 16 16 16 16 15 15 15 15 14 14 14 14 14 14 14 15 15 15 14 14 14 13 13 12 12 11 11 11 10 10 9 9 9 8 8 8 8 8 7 7 7 6 6 6 6 5 5 5 5 4 4 4
14 14 14 15 15 15 15 16 16 16 16 17 16 16 15 15 15 15 15 16 15 14 14 14 14 14 14 14 14 14 14 14 14 14 14 13 13 12 11 11 11 10 10 10 9 9 9 8 8 8 8 8 7 7 7 7 6 6 6 6 5 5 5 4 4 4 4 3 3
14 14 14 15 15 15 15 16 16 16 16 15 15 14 14 14 14 14 15 15 14 14 13 13 13 13 13 13 13 13 13 13 13 12 12 11 11 10 10 10 10 9 9 9 8 8 8 8 8 7 7 7 7 7 6 6 6 6 6 5 5 5 4 4 4 3 3 3 3
14 14 14 15 15 15 16 16 16 15 14 14 13 13 13 13 13 14 14 14 13 13 13 13 13 13 13 13 13 13 12 12 11 11 10 10 9 9 9 9 9 8 8 8 7 7 7 7 7 7 7 7 6 6 6 6 6 5 5 5 4 4 4 4 3 3 3 3 2
14 14 14 15 15 15 15 15 14 13 13 13 12 12 12 12 13 13 13 13 13 13 13 13 12 12 12 12 12 11 11 11 10 10 9 9 9 9 9 8 8 8 7 7 7 7 7 7 7 7 7 6 6 6 6 6 5 5 5 4 4 4 4 3 3 3 3 3 2
14 14 14 14 14 14 14 13 12 12 12 12 12 12 12 12 12 12 12 12 12 12 12 12 11 11 11 10 10 10 10 9 9 9 9 9 9 8 8 8 7 7 7 7 7 6 6 6 6 7 7 6 6 6 5 5 5 4 4 4 4 3 3 3 3 3 2 2 2
13 13 13 13 13 13 12 12 11 11 11 11 11 11 11 11 11 11 11 11 11 11 11 10 10 10 9 9 9 9 9 9 9 9 9 9 8 8 7 7 7 7 7 6 6 6 6 6 6 6 6 6 6 5 5 5 4 4 4 3 3 3 3 2 2 2 2 2 2
12 12 12 12 12 11 11 11 11 10 10 10 10 10 10 10 10 10 9 9 10 9 9 9 9 9 9 9 9 9 9 9 9 9 8 8 8 7 7 7 6 6 6 6 6 6 6 6 6 6 5 5 5 5 4 4 4 4 3 3 3 3 3 2 2 2 2 2 2
12 12 11 11 11 10 10 10 10 10 10 10 9 9 9 9 9 9 9 9 9 9 9 9 9 9 9 9 9 9 9 9 8 8 8 7 7 7 7 6 6 6 6 6 6 6 5 5 5 5 5 5 4 4 4 4 3 3 3 3 3 3 3 2 2 2 2 2 2
11 10 10 10 10 10 10 9 9 9 9 9 9 9 9 8 8 8 8 8 8 8 8 8 8 8 8 8 8 8 8 8 7 7 7 7 6 6 6 6 6 6 6 6 5 5 5 5 4 4 4 4 4 4 3 3 3 3 3 3 3 3 2 2 2 2 2 2 2
10 9 9 9 9 9 9 9 9 9 8 8 8 8 8 8 8 7 7 7 7 7 7 7 7 7 7 7 7 7 7 6 6 6 6 6 6 6 6 6 6 6 5 5 5 5 4 4 4 4 4 4 4 3 3 3 3 3 3 2 2 2 2 2 2 1 1 1 1
8 8 9 9 9 9 8 8 8 8 7 7 7 7 7 7 6 6 6 6 6 6 6 6 6 6 6 6 6 6 6 5 5 5 5 5 5 5 5 5 5 5 5 5 4 4 4 4 4 4 3 3 3 3 3 2 2 2 2 2 1 1 1 1 1 1 1 1 1
8 8 8 8 8 8 7 7 7 7 7 7 6 6 6 6 6 6 6 6 6 5 5 5 5 5 5 5 5 5 5 5 4 4 4 4 4 4 4 4 4 4 4 4 4 4 4 3 3 3 3 3 2 2 2 2 2 1 1 1 1 1 1 1 1 1 1 1 0
7 7 7 7 7 7 7 7 7 7 6 6 6 6 6 6 6 5 5 5 5 5 5 5 4 4 4 4 4 4 4 4 4 4 4 4 4 4 4 4 3 3 3 3 3 3 3 3 3 2 2 2 2 2 1 1 1 1 1 1 1 0 0 1 1 1 1 0 0
7 7 7 7 7 7 7 6 6 6 6 6 6 5 5 5 5 5 5 5 5 4 4 4 4 4 4 4 4 4 4 4 3 3 3 3 3 3 3 3 3 3 3 3 3 3 3 2 2 2 2 2 1 1 1 1 1 1 0 0 0 0 0 0 0 0 0 0 0
7 7 7 6 6 6 6 6 6 6 5 5 5 5 5 5 5 5 5 4 4 4 4 4 4 3 3 3 3 3 3 3 3 3 3 3 3 3 3 2 2 2 2 2 2 2 2 2 2 2 2 1 1 1 1 1 0 0 0 0 0 0 0 0 0 0 0 0 0
6 6 6 6 6 6 6 6 5 5 5 5 5 5 5 5 5 4 4 4 4 4 3 3 3 3 3 3 3 3 3 3 3 3 3 3 2 2 2 2 2 2 2 2 2 2 2 2 1 1 1 1 1 1 1 0 0 0 0 0 0 0 0 0 0 0 0 0 0
6 6 6 6 6 6 5 5 5 5 5 5 5 5 5 5 4 4 4 4 3 3 3 3 3 3 3 3 3 3 2 2 2 2 2 2 2 2 2 2 2 2 2 2 2 2 2 1 1 1 1 1 1 1 0 0 0 0 0 0 0 0 0 0 0 -0 -0 -0 -0
6 6 6 6 5 5 5 5 5 5 5 5 5 5 5 5 4 4 4 3 3 3 3 3 3 3 3 2 2 2 2 2 2 2 2 2 2 2 2 2 2 2 2 2 2 2 1 1 1 1 1 1 1 0 0 0 0 -0 -0 -0 0 0 0 -0 -0 -0 -0 -0 -0
5 5 5 5 5 5 5 5 5 5 5 5 5 5 4 4 4 4 3 3 3 3 3 3 3 3 2 2 2 2 2 2 2 2 2 2 2 2 2 2 2 2 2 2 2 1 1 1 1 1 0 0 0 0 0 0 0 0 -0 -0 -0 0 -0 -0 -0 -0 -0 -0 0
5 5 4 4 4 4 4 4 4 5 4 4 4 4 4 3 3 3 3 3 3 3 3 3 2 2 2 2 2 2 2 2 2 2 2 2 2 2 2 2 2 2 2 2 1 1 1 1 0 0 0 0 0 0 0 0 0 0 0 0 0 0 0 0 -0 -0 -0 -0 -0
4 4 4 4 4 4 4 4 4 4 4 4 3 3 3 3 2 2 2 2 2 2 2 2 2 2 2 2 2 2 2 2 2 2 2 2 2 2 2 2 2 2 1 1 1 1 1 0 0 0 0 1 1 1 1 0 0 0 0 0 0 0 0 -0 -0 -0 -0 -0 -0
4 4 4 4 4 3 3 4 3 3 3 3 3 3 2 2 2 2 2 2 2 2 2 2 2 2 2 2 2 2 2 2 2 2 2 2 2 2 2 2 1 1 1 1 1 0 0 0 0 0 1 1 1 1 1 1 1 1 0 0 0 -0 -0 -0 -0 -1 -1 -1 -1
4 4 3 3 3 3 3 3 3 3 3 2 2 2 2 2 2 2 2 2 2 2 2 2 2 2 2 2 2 2 2 2 2 2 2 2 2 1 1 1 1 1 1 1 0 0 0 0 0 0 1 1 1 1 1 1 1 1 0 0 -0 -0 -1 -1 -1 -1 -1 -1 -2
3 3 3 3 3 3 3 3 3 2 2 2 2 2 2 2 2 2 2 2 2 2 2 2 2 2 2 2 2 2 2 2 2 1 1 1 1 1 1 1 1 1 1 0 0 0 0 0 0 1 1 1 1 1 1 1 1 0 0 -0 -1 -1 -1 -1 -1 -2 -2 -2 -2
3 3 3 3 3 3 2 2 2 2 2 2 2 2 2 2 2 2 2 2 2 2 2 2 2 2 2 2 2 2 1 1 1 1 1 1 1 1 0 0 0 0 0 0 0 -0 0 0 0 1 1 1 1 1 1 0 0 -0 -1 -1 -1 -2 -2 -2 -2 -2 -2 -2 -2
3 3 3 3 2 2 2 2 2 2 2 2 2 2 2 2 2 2 2 2 2 2 2 2 2 2 2 2 1 1 1 1 1 1 1 1 0 0 0 0 -0 -0 -0 -0 -0 -0 -0 0 0 1 1 1 1 0 0 -0 -1 -1 -1 -2 -2 -2 -2 -2 -2 -2 -2 -2 -2
3 2 2 2 2 2 2 2 2 2 2 2 2 2 2 2 2 2 2 2 2 2 2 2 2 1 1 1 1 1 1 1 1 1 0 0 0 0 0 -0 -0 -0 -0 -0 -0 -0 -0 -0 -0 0 0 0 0 -0 -0 -1 -1 -2 -2 -2 -2 -2 -2 -2 -2 -2 -2 -2 -2
2 2 2 2 2 2 2 2 2 2 2 2 2 2 2 2 2 2 2 2 2 2 2 1 1 1 1 1 1 1 0 0 1 0 0 0 0 0 0 -0 -1 -1 -1 -1 -1 -1 -1 -1 -0 -0 -0 -0 -0 -1 -1 -1 -2 -2 -2 -2 -2 -2 -2 -2 -2 -2 -2 -2 -2
2 2 2 2 2 2 2 2 2 2 2 2 2 2 2 2 2 2 2 2 2 1 1 1 1 1 1 0 0 0 0 0 0 0 0 0 0 0 -0 -1 -1 -1 -1 -1 -1 -1 -1 -1 -1 -1 -0 -0 -1 -1 -1 -1 -2 -2 -2 -2 -2 -2 -2 -2 -2 -2 -2 -2 -2
2 2 2 1 1 1 1 1 1 2 2 2 2 2 2 2 2 2 1 1 1 1 1 1 0 0 0 0 0 -0 -0 -0 0 0 0 0 0 -0 -0 -1 -1 -1 -1 -1 -1 -1 -1 -1 -1 -1 -1 -1 -1 -1 -1 -2 -2 -2 -2 -2 -2 -2 -2 -2 -2 -2 -2 -2 -2
Height
768 768 768 768 768 768 768 768 768 768 768 768 768 768 768 768 768 768 768 768 769 769 769 770 770 771 772 772 772 773 773 774 775 776 776 777 778 778 779 779 780 782 783 783 783 783 783 784 785 786 787 787 788 787 787 788 788 787 787 788 789 791 791 792 792 792 792 792 792
768 768 768 767 767 767 767 767 767 767 767 767 767 767 767 767 767 767 767 767 768 768 768 769 769 770 770 771 771 772 773 773 774 774 775 776 777 778 778 778 779 781 781 782 781 781 782 783 784 785 786 786 787 786 786 786 786 786 785 785 785 787 788 789 789 789 789 789 789
767 767 767 767 767 767 767 766 766 766 766 766 767 767 767 767 766 766 767 767 767 767 767 768 768 768 769 769 769 771 773 773 773 773 774 775 776 776 777 777 778 779 780 780 780 781 781 782 783 783 784 784 785 785 784 784 784 784 784 784 783 784 785 785 786 786 787 787 787
767 767 766 766 766 766 766 766 766 766 766 766 766 766 766 766 766 766 766 766 766 766 767 767 767 767 767 767 768 770 772 773 773 773 773 773 773 774 775 776 777 778 779 779 780 781 781 782 783 783 783 783 783 783 783 783 783 783 783 783 783 783 783 784 784 785 785 785 785
766 766 766 766 766 765 765 765 765 765 765 765 765 765 765 765 765 765 765 765 765 765 766 766 766 766 767 767 768 770 771 772 772 772 771 771 772 773 774 775 776 778 778 779 780 781 781 782 782 783 783 783 783 783 783 783 783 783 783 783 783 783 783 783 784 784 784 784 784
766 766 766 765 765 765 765 765 764 764 764 764 764 764 764 764 764 764 764 764 764 764 764 765 765 766 767 768 768 770 771 771 770 770 770 770 772 773 774 775 777 778 778 779 780 780 781 782 782 782 782 782 782 782 782 782 783 783 783 783 783 783 783 783 783 784 784 784 783
766 765 765 765 765 764 764 764 764 764 763 763 763 763 763 763 763 763 763 763 763 763 764 764 764 765 766 767 769 770 770 769 769 769 769 770 772 773 774 776 777 778 778 779 779 780 781 781 781 781 781 781 781 782 782 783 783 783 783 783 783 783 783 783 784 784 784 784 783
765 764 764 764 764 764 764 763 763 763 763 763 763 762 762 762 762 762 762 762 762 762 763 763 763 764 765 767 768 768 768 768 768 768 769 771 772 773 775 776 777 778 778 779 779 779 780 780 780 780 781 781 782 782 782 783 783 783 783 783 783 783 784 784 784 784 784 783 783
764 764 764 764 763 763 763 763 763 762 762 762 762 762 762 762 762 761 761 761 760 761 762 762 763 764 765 765 766 766 767 767 768 768 770 771 772 773 774 776 776 777 778 778 778 778 779 779 780 780 781 781 781 781 782 782 783 783 783 783 783 784 784 784 784 784 783 783 783
764 763 763 763 763 763 762 762 762 762 761 761 761 761 761 762 761 760 760 759 759 760 761 762 763 763 764 765 765 766 767 767 768 769 770 771 772 773 774 775 776 776 777 777 778 778 778 779 779 780 780 780 780 781 781 782 783 783 783 783 783 784 784 784 785 784 784 784 783
763 763 763 763 762 762 762 762 761 761 761 760 760 761 761 761 760 759 759 759 759 760 761 761 762 763 763 764 765 766 767 768 768 769 770 771 772 773 773 774 775 775 776 777 777 778 778 778 778 779 779 779 780 780 781 782 782 783 783 783 784 784 785 785 785 785 785 785 784
763 763 762 762 762 761 761 761 761 760 760 760 760 760 760 759 759 758 758 758 759 759 760 761 762 763 763 765 766 767 768 768 769 769 770 771 771 772 773 773 774 775 776 776 777 777 778 778 778 778 778 779 780 780 781 781 782 782 783 783 783 784 785 785 786 786 786 786 786
762 762 762 761 761 761 760 760 760 760 760 760 759 759 759 759 758 758 758 758 759 760 760 762 762 763 764 765 766 767 768 768 768 769 770 770 771 772 772 773 774 775 775 776 776 777 777 777 777 778 778 779 779 780 780 781 781 782 782 783 783 784 785 785 786 786 786 786 786
762 761 761 760 760 760 760 760 760 760 759 759 758 759 759 759 759 759 759 759 760 761 761 762 763 764 765 766 766 767 767 768 768 769 769 770 771 771 772 773 774 774 775 776 776 776 776 776 777 777 778 778 779 779 780 780 781 781 782 782 783 783 784 785 785 785 786 786 786
761 761 760 760 759 759 759 759 759 759 759 759 759 759 759 760 760 760 760 761 761 762 763 763 764 765 765 766 767 767 768 768 768 769 770 770 771 771 772 773 774 774 775 775 776 776 776 776 776 777 777 778 778 778 779 780 780 781 782 782 783 783 783 784 785 785 785 785 786
761 761 760 759 759 758 758 758 759 759 759 759 759 760 760 760 761 761 761 761 762 763 763 763 764 765 766 766 767 767 768 768 769 769 770 770 771 772 773 773 774 774 775 775 776 776 776 777 777 777 777 777 778 778 779 779 780 781 781 782 783 783 784 784 785 785 785 785 785
761 760 760 759 759 759 759 759 759 759 759 760 760 760 761 761 761 762 762 762 763 763 763 764 765 765 766 766 767 768 768 768 769 769 770 771 772 773 773 774 774 775 775 775 776 776 777 777 777 777 777 777 778 778 779 779 780 780 781 782 782 783 784 785 786 787 787 786 785
761 760 760 760 760 760 760 760 760 760 760 760 761 761 761 762 762 762 763 763 763 764 764 765 765 766 766 767 767 768 768 768 769 770 771 772 773 773 773 774 775 775 775 776 776 777 777 777 777 777 777 778 778 778 779 780 780 781 781 781 782 783 784 786 788 788 788 787 785
761 761 761 761 761 761 761 760 760 761 761 761 761 762 762 763 763 763 763 764 764 765 765 765 766 766 767 767 768 768 769 769 770 771 772 773 773 773 774 774 775 776 776 776 777 777 778 778 778 778 778 778 778 779 780 780 781 781 781 781 781 782 784 786 788 789 789 788 787
762 762 762 762 762 762 761 761 761 762 762 762 762 763 763 763 764 764 764 765 765 766 766 766 767 767 768 768 768 769 770 771 771 772 773 773 773 774 774 775 775 776 776 777 777 778 778 778 778 778 778 779 779 780 780 781 781 781 781 782 783 783 784 786 787 788 789 789 789
763 763 763 763 763 762 762 762 762 762 763 763 763 764 764 765 765 765 766 766 767 767 767 768 768 768 768 769 769 770 771 772 773 773 773 774 774 774 775 775 775 776 776 777 778 778 778 779 779 779 779 780 780 781 781 781 781 781 782 782 783 785 785 786 787 788 789 790 791
764 764 764 763 763 763 763 763 763 763 764 764 765 765 766 766 766 767 767 767 768 768 768 768 769 769 770 770 770 771 772 773 773 774 774 775 775 775 775 776 776 776 777 777 778 778 779 779 780 780 781 781 781 782 782 782 782 782 782 783 784 785 786 786 786 788 789 791 793
765 764 764 764 764 764 764 764 765 765 766 766 766 767 767 767 768 768 768 768 768 769 769 770 770 771 771 772 772 773 773 773 774 775 775 776 776 776 776 776 777 777 777 778 778 779 779 780 780 781 782 782 783 783 783 783 783 783 783 783 784 785 785 786 786 788 790 791 793
766 765 765 766 766 766 766 766 766 767 767 767 767 768 768 768 768 769 769 769 769 770 770 771 772 772 773 773 773 774 774 774 775 776 776 776 777 777 777 777 778 778 778 779 779 780 780 781 781 782 782 783 783 784 784 784 784 784 784 784 785 785 786 786 787 788 790 791 792
767 767 767 767 767 767 767 767 767 768 768 768 768 768 769 769 769 770 770 770 771 771 772 772 773 773 774 774 774 775 775 775 776 776 777 777 778 778 778 778 778 779 779 780 781 781 782 782 782 783 783 783 784 785 785 786 786 786 786 786 785 785 786 787 788 790 791 791 792
767 767 767 768 768 768 768 768 768 768 768 769 769 769 770 770 770 770 771 771 772 772 773 773 774 774 775 775 775 776 776 776 777 777 778 778 778 778 779 779 779 780 780 781 782 782 783 783 783 783 784 784 785 785 786 787 787 787 787 786 786 785 786 788 789 791 792 792 793
768 768 768 768 768 768 768 768 769 769 769 769 770 770 770 771 771 771 772 772 773 773 773 774 774 775 775 776 776 777 777 777 778 778 778 779 779 779 780 780 780 781 781 782 783 783 783 784 784 784 784 785 785 786 786 787 788 788 787 787 787 786 787 788 790 792 793 793 793
769 769 769 769 769 769 769 769 769 770 770 770 770 771 771 771 771 772 772 773 773 773 774 774 775 775 776 776 777 777 778 778 778 779 779 780 780 781 781 781 781 782 782 783 783 783 784 784 785 785 785 785 786 786 787 787 787 788 788 788 787 788 788 790 791 792 793 793 794
770 770 770 770 770 770 770 770 770 770 771 771 771 771 771 771 772 772 773 773 773 774 774 775 776 776 777 777 778 778 779 779 779 780 780 780 781 782 782 782 783 783 783 783 783 784 784 784 785 785 786 786 786 786 787 787 787 788 788 788 788 789 790 791 792 793 794 794 794
771 771 771 771 771 771 771 771 771 771 771 772 772 772 772 772 772 773 773 774 774 775 776 776 776 777 778 778 778 779 779 780 780 780 781 781 782 782 783 783 783 783 784 784 784 784 785 785 785 786 786 786 786 786 787 787 788 788 788 789 789 790 791 792 793 793 794 794 794
772 772 772 772 772 772 772 772 772 772 772 773 773 773 773 773 773 774 774 775 776 776 777 777 777 778 778 779 779 780 780 781 781 781 782 782 783 783 784 784 784 784 784 785 785 785 785 785 786 786 786 786 786 787 787 788 788 788 789 790 790 791 792 793 793 794 794 794 794
773 773 773 773 773 773 773 773 773 773 773 773 773 774 774 774 775 775 776 776 777 777 778 778 778 779 779 780 780 781 781 782 782 783 783 783 783 784 784 785 785 785 785 786 786 786 786 786 786 786 786 786 787 787 787 788 788 789 790 790 791 792 793 793 794 794 794 794 795
773 773 773 773 773 773 773 774 774 774 774 774 775 775 775 775 776 776 777 777 778 778 778 779 779 780 780 781 781 782 782 783 783 783 784 784 784 785 785 785 786 786 786 786 786 787 787 787 786 786 786 787 787 787 788 788 789 790 791 791 792 793 793 794 794 794 795 795 795
774 774 774 774 774 774 774 774 775 775 775 775 776 776 776 777 777 777 778 778 778 779 779 779 780 781 781 782 783 783 783 784 784 784 785 785 785 785 786 786 787 787 787 787 787 787 787 787 787 787 787 787 787 788 788 789 789 790 791 792 793 793 794 794 794 795 795 795 795
775 775 775 775 775 775 775 775 776 776 776 776 777 777 777 778 778 778 778 779 779 780 780 780 781 782 782 783 783 784 784 784 785 785 785 786 786 786 786 787 788 788 788 788 788 788 788 788 787 787 787 787 788 788 788 789 790 791 792 792 793 793 794 794 795 795 795 795 796
776 775 775 775 775 776 776 776 776 777 777 777 777 778 778 778 779 779 780 780 780 781 781 781 782 782 783 783 784 785 785 785 786 786 786 787 787 787 787 788 788 789 789 789 789 788 788 788 788 788 788 788 788 788 789 790 790 791 792 792 793 793 794 794 795 795 795 795 796
776 776 776 776 776 776 777 777 777 778 778 778 778 779 779 779 780 780 781 781 781 781 782 782 783 783 783 784 784 785 786 786 786 787 787 787 787 787 788 788 789 789 790 790 790 790 789 789 789 789 789 789 789 789 789 790 791 791 792 793 793 794 794 795 795 795 796 796 796
777 777 777 777 777 777 778 778 778 778 778 779 779 780 780 780 781 781 782 782 782 782 783 783 783 783 784 784 785 786 786 787 787 787 788 788 788 788 788 789 789 790 791 791 791 791 790 790 790 790 790 790 790 790 790 791 791 792 793 793 794 794 795 795 795 796 796 796 796
777 777 777 777 778 778 778 779 779 779 779 780 780 780 781 781 781 782 783 783 783 783 783 783 784 784 784 785 785 786 787 788 788 788 788 789 789 789 789 789 790 791 792 792 792 792 792 791 791 791 791 791 791 791 791 792 792 793 793 794 794 795 795 796 796 796 796 796 796
777 778 778 778 778 779 779 780 780 780 780 780 781 781 781 781 782 782 783 783 783 783 783 784 784 785 785 786 786 787 788 789 789 789 789 790 790 790 790 790 791 792 793 793 793 793 793 793 793 793 792 792 792 792 793 793 793 794 794 795 795 796 796 796 796 796 796 797 797
778 778 778 778 779 779 780 780 781 781 781 781 781 781 781 781 782 782 783 783 783 783 784 784 785 786 786 787 787 788 789 790 790 791 791 791 791 791 791 791 792 793 793 793 793 793 793 793 793 793 793 793 793 793 793 794 794 794 795 795 796 796 796 797 797 797 797 797 797
Wind_Speed
12 14 15 16 17 17 17 18 18 18 19 20 20 21 21 20 19 20 20 21 21 21 21 22 22 21 20 19 18 19 20 21 21 22 22 21 21 20 20 20 19 19 18 18 18 19 20 21 22 22 23 23 24 26 27 29 29 30 30 29 29 29 30 30 30 30 29 28 28
10 12 14 15 17 17 18 18 18 18 18 18 19 20 20 20 20 20 20 20 20 20 20 20 21 21 20 19 18 18 18 19 19 20 19 19 19 19 19 19 18 18 18 19 19 20 21 21 22 22 23 24 25 27 29 31 32 32 31 29 29 30 32 33 33 32 31 29 28
9 10 11 13 15 16 18 18 19 18 18 17 17 18 19 20 20 20 19 18 18 19 19 19 19 20 20 19 18 17 17 17 18 17 16 16 16 16 16 17 17 18 19 19 19 19 20 20 21 22 23 25 27 28 30 31 33 32 30 28 28 29 30 32 34 34 32 30 29
9 9 9 10 11 13 15 17 18 19 18 18 17 17 18 19 20 20 20 19 18 18 18 18 18 18 18 18 17 16 16 16 16 15 13 14 15 15 15 16 17 18 18 18 18 18 18 19 20 22 23 25 27 28 29 30 30 29 27 26 26 27 28 29 31 32 32 30 30
9 8 8 8 9 10 12 14 16 18 19 19 18 18 18 18 18 19 20 19 18 17 17 18 18 18 17 16 15 15 15 15 13 12 12 13 15 15 15 15 16 16 16 16 16 16 17 18 19 21 23 25 26 27 27 28 27 25 24 24 24 25 26 27 29 30 30 30 29
9 8 7 7 8 9 10 11 13 15 17 18 19 19 18 18 17 18 19 19 19 19 18 17 17 17 16 14 13 13 13 11 11 12 13 14 14 14 13 13 13 13 13 13 14 15 16 18 20 22 24 25 25 25 25 24 23 22 22 23 24 25 25 26 27 28 28 28 28
8 8 8 8 8 9 9 10 11 12 14 16 18 19 19 18 18 18 19 20 20 18 17 15 14 13 12 11 10 10 10 12 13 13 13 12 11 11 10 10 9 10 10 12 14 16 18 20 21 22 22 22 21 21 22 22 21 21 21 22 23 24 24 25 26 27 27 26 26
9 9 9 9 9 10 10 10 11 11 12 14 16 18 19 19 18 19 19 18 17 15 13 11 8 6 5 6 9 11 13 14 14 13 11 10 9 8 7 7 8 10 12 14 16 18 19 19 19 18 18 18 19 19 20 21 20 20 19 20 20 21 22 23 24 25 25 25 25
10 9 9 10 10 10 10 11 11 11 12 13 14 15 17 17 18 18 17 15 13 12 8 4 3 6 8 10 13 15 15 14 13 11 9 7 6 6 7 8 10 12 14 16 17 17 16 16 15 15 15 16 17 18 18 19 18 17 17 17 18 19 19 20 21 22 23 23 22
10 10 10 10 10 10 10 11 11 11 12 12 13 13 14 14 13 11 9 8 7 5 4 6 9 11 13 13 14 14 13 12 10 8 6 5 5 7 9 10 12 13 14 14 14 14 13 13 13 13 14 14 15 15 15 15 14 14 14 16 16 17 17 17 18 18 18 18 19
10 10 10 11 11 10 10 10 10 11 12 13 12 11 8 5 2 0 2 4 7 9 11 12 13 14 14 14 13 11 10 8 6 5 5 6 7 8 9 9 10 10 10 10 11 11 11 11 11 12 13 13 12 12 12 11 11 12 13 14 15 14 14 14 13 13 13 14 15
10 10 10 10 11 10 10 10 11 12 12 10 7 2 2 6 7 8 9 11 13 14 14 14 14 14 13 12 10 8 6 4 4 4 5 6 6 7 6 6 6 6 6 7 8 8 9 10 11 11 11 11 10 9 9 9 10 12 13 13 13 12 12 11 11 11 11 12 12
9 10 10 10 10 10 10 11 11 9 5 0 4 7 9 10 11 11 12 14 15 15 15 14 13 12 10 9 7 5 4 4 4 4 4 4 4 3 3 3 3 3 4 5 6 7 8 9 10 10 9 8 8 8 8 9 10 11 12 12 12 11 11 10 10 11 11 11 11
9 9 9 9 9 9 10 9 5 0 5 9 10 10 10 10 11 11 12 13 14 14 13 12 10 9 7 6 5 4 4 4 3 3 3 2 2 1 1 2 2 3 4 6 7 8 8 9 9 9 8 7 7 7 8 9 10 10 11 11 11 11 11 11 11 12 12 12 12
8 8 8 8 7 6 4 2 6 9 11 11 10 10 10 10 9 9 9 10 10 10 9 8 7 6 5 5 4 4 4 3 3 3 4 4 3 3 3 3 4 5 6 7 7 8 8 8 8 8 7 7 7 7 8 9 10 10 10 10 10 10 11 11 12 13 13 14 14
7 7 7 6 6 6 8 11 13 13 12 11 10 9 9 9 8 7 7 7 7 6 6 6 6 6 6 5 5 4 4 4 4 4 4 4 4 4 4 5 6 6 7 7 7 7 7 7 6 6 6 7 7 7 8 9 9 9 9 9 10 10 11 11 12 14 15 16 16
8 9 9 10 11 12 14 15 15 14 13 12 11 10 10 9 9 8 8 7 7 7 7 8 7 7 7 7 6 6 6 5 5 5 4 5 5 5 6 6 6 7 7 6 6 6 5 5 5 5 5 6 6 7 8 8 9 10 10 10 10 10 10 11 13 14 15 16 16
10 11 12 12 13 14 15 15 14 14 13 13 12 12 11 10 10 10 10 10 9 9 10 10 9 8 8 8 7 6 5 5 5 5 5 5 6 6 7 7 7 6 6 5 5 4 4 4 5 5 6 6 7 8 8 9 10 11 11 12 12 12 12 13 13 14 15 15 14
11 11 12 13 14 14 14 14 13 13 13 13 13 12 12 11 11 11 11 11 10 9 10 10 9 8 8 7 7 6 5 5 5 6 6 6 6 7 7 7 7 6 5 4 4 4 4 5 6 7 7 8 9 9 10 11 12 12 13 13 13 13 14 14 14 13 13 12 12
10 11 12 13 13 13 13 13 13 12 12 12 12 12 12 11 11 11 11 11 10 9 8 9 9 8 8 7 7 7 6 5 6 6 7 7 7 7 7 7 6 5 4 4 4 5 5 6 7 7 8 9 10 11 12 13 13 13 13 13 13 14 14 14 13 12 12 11 12
10 11 11 12 12 12 12 12 12 13 13 14 14 13 13 12 12 12 12 11 10 9 10 10 10 10 9 9 9 9 8 7 7 7 7 7 7 7 7 6 6 5 5 4 5 5 6 7 7 8 9 10 11 12 13 13 14 14 14 13 13 13 13 13 13 12 12 12 13
11 11 11 11 11 11 12 13 14 15 16 16 15 14 14 14 14 13 13 12 11 11 11 11 11 10 10 9 9 10 9 9 8 8 8 8 8 8 7 6 5 5 5 5 5 6 6 7 8 9 10 11 12 13 13 14 14 14 15 14 14 14 13 14 13 13 13 13 13
12 13 13 13 14 15 16 17 17 17 17 16 16 15 15 15 14 14 13 13 13 13 13 12 11 10 10 9 9 9 9 9 9 9 8 8 8 7 6 6 6 6 6 6 6 7 7 8 9 10 11 12 13 13 14 14 15 16 16 16 16 15 15 14 14 14 14 13 12
14 15 16 16 17 17 17 17 17 17 17 16 16 15 15 14 14 13 13 13 13 13 13 12 11 10 10 9 9 9 9 10 10 9 9 8 8 7 7 6 6 7 7 7 7 7 8 10 11 12 12 13 13 14 14 15 15 16 17 17 17 16 15 14 14 14 14 13 12
15 16 16 16 16 16 16 16 16 16 16 16 15 15 14 14 13 13 12 12 12 12 12 12 11 11 10 10 10 10 10 10 10 10 9 9 8 8 7 7 8 8 8 8 8 8 9 10 12 13 13 14 14 14 14 15 15 16 16 17 17 16 16 14 13 13 13 13 13
14 15 15 15 15 15 16 16 16 16 15 15 15 14 14 13 13 13 13 13 13 12 12 12 12 12 11 11 11 10 10 10 10 10 10 9 9 8 8 9 10 10 11 10 10 9 10 10 11 13 14 14 14 14 14 14 14 14 15 15 15 15 15 14 13 12 11 12 12
14 14 14 14 15 15 16 16 16 15 15 15 15 15 14 13 13 13 14 14 13 13 12 12 12 12 12 12 12 12 11 11 10 10 10 10 10 10 10 11 12 13 13 12 11 11 11 11 11 12 13 14 14 15 15 14 14 13 13 13 13 13 13 13 12 11 11 11 11
13 13 13 14 14 15 15 15 15 15 14 14 14 14 13 13 13 13 13 13 13 12 12 13 12 12 12 12 12 12 12 11 11 11 10 10 11 12 13 13 14 13 13 12 11 11 11 11 10 11 12 14 14 15 14 14 14 13 12 12 12 12 11 11 11 11 10 10 9
12 12 13 14 14 14 14 14 14 14 13 12 12 12 11 12 12 12 12 12 12 12 13 12 12 12 12 13 12 12 12 12 12 11 12 12 13 14 15 15 14 13 13 12 12 12 12 12 11 11 12 13 14 14 14 14 13 12 12 11 11 10 10 10 10 10 9 8 8
12 12 13 14 14 14 14 13 13 12 12 11 11 10 11 11 12 12 12 12 12 12 12 12 12 12 13 13 13 13 13 13 13 13 14 15 16 16 15 15 14 14 13 13 12 12 12 13 12 12 12 13 13 14 13 13 12 12 11 11 10 10 10 9 9 8 7 7 6
13 13 14 14 14 14 14 13 13 12 11 11 11 11 12 12 13 13 13 13 13 13 12 12 13 13 13 13 13 14 14 14 15 15 16 17 17 16 16 15 15 15 15 14 14 13 13 13 12 11 11 11 12 12 12 11 11 11 10 10 10 9 9 8 7 6 6 5 4
13 13 14 14 14 14 14 13 12 12 12 12 12 13 13 14 14 14 14 14 14 14 14 14 14 15 15 15 15 15 16 16 16 17 17 17 17 17 17 17 17 16 15 15 14 13 12 11 10 10 10 10 10 10 10 10 10 10 10 10 9 8 8 7 6 6 5 5 5
13 13 14 14 14 14 13 13 13 13 13 13 14 14 14 15 15 15 15 15 15 15 16 16 16 17 17 17 17 17 17 17 17 17 17 18 18 19 19 19 18 16 15 14 13 12 11 10 9 8 8 9 9 9 9 9 10 10 9 9 8 7 7 6 6 6 6 6 5
13 13 14 14 14 14 13 13 13 14 14 14 14 14 14 14 15 15 15 15 16 16 17 17 18 18 18 18 18 17 17 17 17 18 19 20 20 21 20 19 17 15 13 13 12 11 10 8 8 8 9 9 9 9 9 9 10 9 9 9 8 7 7 6 6 6 6 6 6
13 13 14 14 14 14 14 14 14 14 15 15 15 15 14 15 15 15 16 16 16 17 17 18 18 19 18 18 18 18 18 19 20 21 21 21 21 21 20 18 16 14 12 11 10 9 9 8 8 9 9 10 10 10 10 10 10 10 9 9 8 8 7 7 7 7 7 6 6
12 13 14 14 14 14 14 14 15 15 15 16 15 15 15 15 16 16 16 17 18 18 18 19 19 19 19 19 19 20 20 21 22 22 21 20 20 20 19 17 15 13 11 10 9 9 8 8 9 9 10 10 10 10 10 10 10 10 10 10 9 9 8 8 7 7 6 5 5
12 13 14 15 15 15 15 15 16 16 16 16 16 16 16 16 16 17 17 18 19 19 19 19 19 19 19 20 21 21 21 21 21 21 20 19 19 19 18 16 14 12 11 10 9 9 9 9 9 9 9 10 10 10 11 11 11 11 11 10 9 9 8 7 6 5 4 4 3
13 13 14 15 16 16 16 16 16 17 16 16 16 16 16 17 17 17 17 18 19 19 19 19 20 20 21 22 22 22 21 20 20 20 19 18 17 17 17 16 14 12 11 10 9 9 9 9 8 8 8 9 10 11 11 12 12 11 11 10 9 8 7 6 5 5 5 4 3
14 15 15 16 16 16 16 16 16 16 16 16 16 16 16 17 17 17 17 17 18 18 19 20 21 22 22 22 22 22 21 20 19 18 18 17 16 15 15 15 14 13 11 10 10 9 9 8 8 8 8 9 10 10 11 11 12 11 10 10 9 8 7 7 7 6 6 6 6
15 15 16 16 16 16 16 16 16 16 16 16 15 15 16 17 17 17 17 17 18 19 21 22 22 22 22 22 22 22 21 19 18 17 16 16 14 14 14 15 15 13 12 10 10 9 9 9 8 8 8 9 10 10 11 11 11 11 10 10 9 8 7 7 7 7 6 6 6
15 16 16 16 16 16 16 16 15 15 15 15 16 16 17 17 18 18 19 19 20 21 21 22 22 22 22 22 22 21 21 19 17 16 15 14 13 13 13 14 14 14 12 11 11 11 10 10 10 10 11 11 11 12 11 11 11 10 9 8 8 7 6 6 6 6 5 5 5
Wind_Direction
275 268 262 259 259 259 259 259 258 258 257 256 256 255 255 255 253 250 246 242 239 236 234 234 236 237 237 235 231 228 226 225 226 230 234 236 237 237 236 236 238 237 235 229 223 223 226 229 231 234 236 239 242 245 247 249 247 246 248 250 248 247 246 246 247 245 239 233 230
286 277 269 263 260 259 260 260 260 260 260 259 258 257 256 256 256 255 254 251 246 241 237 236 235 235 235 234 233 232 231 230 227 227 230 233 236 237 238 239 237 234 229 225 224 225 228 231 233 236 240 244 246 248 250 251 249 246 244 244 246 249 249 248 245 241 236 232 229
296 290 281 272 265 261 260 261 261 262 262 262 261 259 257 256 256 257 258 257 252 247 242 240 237 234 234 235 237 238 238 237 233 230 230 230 232 234 234 233 229 225 223 223 226 228 231 234 236 239 242 245 247 248 248 249 249 247 244 242 243 245 247 246 242 238 235 231 228
293 293 290 285 277 269 264 262 261 261 262 263 264 263 261 257 256 256 257 258 256 252 246 241 238 237 238 241 242 242 242 241 239 234 227 223 223 224 223 221 218 217 217 222 226 230 234 237 240 242 245 246 247 247 247 247 247 245 244 243 242 240 240 240 239 235 230 228 227
288 289 290 291 288 281 274 268 264 262 262 262 265 266 265 261 257 254 254 254 255 253 249 244 242 243 244 246 246 246 245 242 232 220 213 215 217 217 214 211 209 211 215 221 228 234 238 243 246 248 249 249 249 248 247 248 246 245 244 245 243 239 236 233 232 230 228 227 226
287 286 288 291 293 291 287 280 273 267 263 262 264 266 267 265 261 256 252 251 251 252 251 249 248 247 246 246 248 248 241 226 207 202 206 209 210 208 207 208 209 213 220 230 239 246 251 254 254 253 251 249 248 248 248 249 248 247 246 245 243 240 235 231 230 229 228 228 227
290 289 290 292 294 294 291 288 282 275 269 264 263 264 265 267 267 264 259 254 251 250 251 252 251 250 248 244 239 227 209 196 192 194 197 199 198 198 201 209 219 230 242 253 260 263 262 260 255 251 250 249 250 252 254 255 254 251 247 243 242 239 235 231 231 230 229 229 228
295 293 291 292 292 292 291 289 286 282 275 268 263 262 262 265 269 273 272 263 253 248 250 254 252 241 219 202 190 184 183 184 185 186 186 186 190 197 211 229 246 257 262 264 263 261 258 255 253 252 254 256 258 260 260 260 257 252 247 242 241 238 235 232 231 230 230 229 228
298 293 289 287 286 286 287 287 287 285 282 275 267 262 262 266 272 279 282 273 256 247 246 238 185 160 157 160 166 171 175 177 176 175 177 183 197 218 239 253 259 261 260 259 257 255 253 254 256 259 261 262 261 260 259 258 254 250 244 240 239 237 235 232 231 230 229 227 224
298 293 288 284 281 281 283 284 285 285 284 281 275 270 269 273 278 285 287 275 246 215 169 144 146 150 153 156 161 165 166 167 168 171 183 206 230 244 251 254 255 254 254 254 255 256 257 259 259 259 258 257 255 253 253 253 249 244 239 238 237 234 232 231 229 227 225 222 218
297 292 287 283 281 280 280 281 281 281 282 282 280 277 275 278 277 132 126 135 131 128 130 138 146 150 152 155 156 157 158 161 171 190 217 235 244 246 247 249 250 251 253 256 259 259 258 256 251 248 247 248 247 247 247 245 240 235 232 233 232 229 226 224 223 219 215 211 208
299 293 289 286 283 281 279 277 276 278 281 281 280 270 112 104 111 122 132 135 127 127 132 138 143 147 150 151 151 152 159 173 198 220 230 233 236 238 241 245 249 253 256 257 256 252 246 241 238 237 238 241 242 241 238 234 231 227 226 226 225 222 217 214 211 206 203 200 196
303 298 294 290 287 282 278 275 276 279 284 308 103 107 107 105 110 120 129 131 129 129 132 137 138 141 144 148 154 164 178 194 208 215 216 218 222 226 231 239 245 245 239 233 232 230 228 227 228 230 232 234 233 231 228 225 224 223 221 219 217 213 209 205 201 198 195 191 185
311 307 302 297 292 285 280 279 280 348 93 98 100 104 106 104 106 113 119 122 123 125 128 132 135 138 145 154 167 179 186 189 186 177 164 158 152 147 155 178 201 205 203 203 208 213 216 219 223 225 226 225 223 222 222 222 220 219 218 213 208 203 200 198 196 193 188 182 176
324 322 318 312 307 303 308 52 86 89 90 90 92 96 99 98 100 104 110 115 118 123 128 133 137 144 154 161 166 169 167 161 149 135 124 116 114 122 141 160 175 184 189 194 199 205 211 216 220 222 223 222 220 219 219 219 217 215 212 208 202 197 194 193 193 191 186 180 172
345 351 357 7 26 57 78 85 85 84 82 81 81 85 88 90 92 97 103 110 116 123 129 134 138 142 145 144 140 137 132 125 119 114 112 114 123 136 151 161 168 177 185 191 194 200 206 212 216 221 222 219 214 211 209 208 206 202 198 195 192 190 188 189 188 186 182 178 170
23 32 42 54 66 75 81 82 81 80 79 78 78 79 80 84 88 92 97 103 111 117 120 120 124 126 126 123 120 116 112 109 107 107 112 123 136 147 155 160 167 175 183 187 188 191 195 198 202 206 206 200 193 189 188 187 185 182 178 177 175 174 175 177 177 174 172 169 164
48 53 58 65 71 75 76 78 78 79 79 79 78 78 79 82 86 90 93 97 102 107 110 111 113 114 114 112 108 102 97 97 101 110 121 133 144 151 157 160 166 171 175 178 179 179 179 175 174 175 174 170 166 165 166 167 166 166 165 164 163 162 162 163 164 163 162 161 159
57 60 63 66 71 73 73 74 76 77 78 78 79 79 80 82 85 89 91 93 95 100 104 106 107 108 106 103 97 91 88 93 106 119 130 139 147 154 158 160 162 164 164 165 164 163 161 158 158 158 158 156 154 155 156 157 157 157 157 158 158 158 158 158 159 159 160 160 161
64 65 66 68 72 74 74 74 75 77 79 79 79 79 80 81 83 85 87 88 90 93 97 100 102 104 103 100 98 97 99 106 118 127 135 143 149 155 158 159 159 158 158 157 153 151 149 149 150 151 152 152 152 152 153 154 153 152 152 154 155 156 158 159 160 160 162 164 165
71 71 71 74 77 79 79 79 79 80 80 80 79 80 81 81 82 83 84 86 90 93 96 98 101 103 104 106 107 110 114 120 126 131 136 142 146 150 155 159 159 159 159 158 153 149 148 147 147 148 149 151 151 152 152 152 151 150 150 151 153 155 158 159 159 159 161 163 164
79 81 82 82 83 84 85 85 84 82 81 80 81 81 82 83 83 85 88 92 94 95 95 97 99 102 105 108 112 115 119 123 126 129 134 139 141 144 148 153 156 159 159 159 158 156 153 151 149 148 147 147 147 148 148 148 147 146 146 148 150 153 155 156 156 157 159 160 160
83 85 85 84 84 85 85 84 83 82 81 81 82 83 83 84 86 89 92 94 94 93 92 92 93 95 100 104 109 114 117 120 121 123 128 133 134 136 139 143 147 149 150 153 157 159 156 151 147 145 144 143 141 141 140 140 140 140 141 142 144 146 148 150 153 156 159 160 159
83 84 83 83 82 82 82 82 81 80 80 80 82 83 85 87 88 90 91 91 90 89 88 88 89 91 94 99 104 108 111 113 113 115 118 122 125 128 131 135 136 137 139 142 147 151 151 147 143 141 141 140 139 138 136 135 134 135 135 136 137 138 138 141 147 153 157 159 159
83 83 83 83 83 83 83 83 81 81 81 82 84 86 87 88 88 89 88 87 86 87 87 89 90 93 95 97 99 102 105 107 109 111 113 116 119 122 125 127 127 126 125 125 130 135 139 140 140 139 139 139 138 137 135 134 133 132 133 132 132 132 132 134 141 149 155 158 159
84 85 86 87 88 88 86 85 84 84 86 88 89 89 89 89 89 88 87 87 87 88 90 92 94 96 98 99 100 101 102 105 108 112 114 116 116 117 118 118 117 115 113 112 116 120 125 130 135 139 140 140 139 137 135 134 134 134 134 133 132 132 132 134 140 148 155 160 162
84 86 89 92 92 91 89 89 89 90 90 91 91 90 90 90 91 91 91 91 91 92 94 95 97 99 101 102 102 102 104 106 109 112 114 115 115 115 113 111 110 109 108 108 110 113 116 122 130 137 141 141 140 138 136 135 136 136 136 133 132 132 134 136 142 148 155 160 164
82 86 90 92 91 90 91 91 90 89 88 88 89 89 90 91 91 92 93 93 94 95 96 97 100 103 104 104 104 105 107 108 110 112 112 112 112 112 111 109 107 106 106 108 110 112 114 118 126 135 141 142 141 139 137 135 135 134 133 131 130 131 133 137 142 147 152 155 159
83 86 89 89 88 88 88 87 86 85 85 85 86 88 89 90 90 91 92 93 95 96 98 100 103 105 105 106 107 108 109 110 112 112 112 112 111 110 109 107 106 106 108 109 110 111 113 115 121 130 138 143 142 139 136 134 134 132 130 128 128 130 133 136 141 145 148 152 156
87 89 89 89 88 88 87 86 86 87 88 88 90 92 93 93 92 93 94 96 97 100 102 106 107 108 109 110 111 111 112 112 112 113 113 113 113 112 110 107 107 107 108 109 109 110 112 114 119 126 135 143 142 139 136 134 133 130 128 127 128 130 132 135 139 144 148 153 159
90 90 90 90 90 89 90 91 92 94 95 96 97 97 97 96 96 97 100 102 104 107 109 110 111 111 112 113 113 113 113 113 113 113 114 115 114 112 109 108 107 107 106 107 108 110 112 115 120 128 136 141 140 137 135 132 130 127 125 125 127 129 132 136 140 144 147 151 155
92 92 92 91 90 91 93 95 97 98 99 100 99 98 98 98 99 102 104 107 110 112 113 113 113 114 114 113 113 112 112 112 112 113 114 114 113 111 109 107 106 105 105 105 107 108 110 114 120 128 133 135 134 132 131 128 126 124 124 124 127 130 134 138 140 141 140 137 134
95 95 94 93 93 94 96 98 99 100 100 99 98 98 99 101 103 105 107 110 112 113 114 114 114 113 112 112 111 111 111 111 111 112 112 112 111 109 107 105 104 103 103 103 103 104 106 110 116 123 127 127 126 126 126 125 125 124 125 126 128 132 136 138 137 134 129 122 116
97 97 96 95 96 97 99 100 102 102 101 100 100 100 102 104 106 108 109 111 112 113 113 113 113 112 112 111 111 110 109 109 109 109 110 110 109 107 105 102 101 100 100 100 100 101 104 108 114 120 123 123 123 124 125 126 126 127 128 128 130 133 136 135 132 125 118 110 102
98 99 98 98 98 99 101 103 104 104 103 102 102 103 105 107 108 110 111 113 113 113 112 112 112 112 111 110 109 108 107 106 107 109 110 111 109 106 103 101 100 99 98 99 99 102 106 110 116 120 123 124 125 126 127 128 128 129 129 129 129 129 128 127 122 116 109 103 97
97 100 101 101 101 102 103 104 104 104 103 103 103 105 106 108 110 111 113 114 113 112 112 112 112 111 109 108 107 107 108 109 110 112 113 113 110 107 104 103 101 99 98 99 101 105 109 114 118 122 125 126 127 128 129 130 128 128 127 126 123 122 120 119 116 113 111 108 105
96 100 103 104 104 105 106 106 105 104 104 105 106 107 109 109 111 113 114 115 114 113 112 111 110 109 108 108 109 111 114 117 117 116 115 114 113 110 108 106 104 102 101 102 104 108 112 116 120 124 127 128 129 129 129 128 126 124 123 120 117 116 115 115 112 108 103 99 96
99 103 105 106 106 107 107 108 108 108 108 109 111 111 111 112 112 113 115 115 114 113 112 111 110 110 112 115 117 118 120 121 121 119 117 116 114 112 110 108 106 104 103 104 106 109 112 116 120 124 126 128 128 127 126 123 122 119 117 115 112 110 107 103 93 82 70 59 48
105 106 107 106 106 107 108 108 109 110 111 113 113 113 113 113 114 115 116 116 116 115 113 112 113 115 118 120 120 119 119 120 121 119 117 115 113 111 109 107 105 104 103 103 104 106 108 111 115 118 120 122 121 121 120 118 115 113 111 108 104 99 92 82 71 59 49 41 33
108 110 109 108 108 108 108 109 110 111 113 113 113 114 115 116 117 119 120 120 118 117 116 116 117 119 121 121 120 118 117 117 117 116 114 112 110 109 108 108 107 106 104 102 101 101 102 103 105 107 108 108 108 108 107 106 104 102 99 97 92 87 79 69 59 49 40 33 26
110 111 111 110 110 110 110 110 111 113 114 114 113 115 117 119 121 121 121 120 119 118 118 119 120 122 122 122 120 119 117 115 113 111 108 106 106 106 107 109 110 109 106 102 98 96 95 94 94 94 93 92 91 91 91 92 92 91 89 86 80 75 68 60 52 45 38 29 20